Temp
-11 -12 -12 -12 -12 -12 -13 -13 -13 -13 -14 -14 -15 -15 -15 -15 -16 -16 -16 -16 -16 -16 -16 -16 -16 -16 -16 -16 -15 -15 -14 -15 -14 -14 -13 -13 -13 -13 -12 -12 -13 -12 -12 -12 -12
-12 -12 -12 -12 -13 -13 -13 -13 -13 -14 -14 -15 -15 -15 -15 -16 -16 -16 -16 -16 -16 -16 -16 -17 -17 -17 -16 -16 -15 -15 -14 -15 -14 -13 -13 -13 -13 -14 -13 -13 -13 -12 -13 -13 -12
-12 -12 -12 -12 -13 -13 -13 -13 -13 -14 -14 -15 -15 -15 -16 -16 -16 -16 -16 -16 -16 -16 -17 -17 -17 -17 -16 -16 -15 -16 -15 -14 -14 -13 -14 -14 -14 -14 -13 -13 -14 -14 -14 -15 -14
-12 -12 -12 -12 -13 -13 -13 -13 -14 -14 -15 -15 -15 -15 -16 -16 -16 -16 -16 -16 -17 -17 -17 -17 -17 -16 -16 -16 -16 -16 -15 -14 -13 -13 -14 -14 -15 -14 -13 -13 -16 -15 -15 -15 -14
-12 -12 -12 -12 -13 -13 -13 -13 -14 -15 -15 -15 -16 -16 -16 -16 -16 -16 -16 -16 -17 -17 -17 -16 -16 -16 -16 -15 -16 -16 -15 -15 -15 -14 -15 -14 -14 -15 -15 -15 -15 -15 -15 -15 -15
-12 -12 -12 -13 -13 -13 -13 -14 -14 -15 -15 -16 -16 -16 -16 -16 -16 -16 -16 -17 -17 -17 -17 -16 -16 -16 -16 -16 -17 -16 -15 -15 -15 -15 -16 -15 -16 -15 -15 -15 -15 -15 -15 -15 -15
-12 -12 -12 -13 -13 -13 -13 -14 -15 -15 -15 -16 -16 -15 -16 -16 -16 -17 -17 -17 -18 -17 -16 -16 -16 -16 -16 -16 -16 -16 -16 -16 -15 -16 -16 -16 -15 -15 -15 -15 -15 -15 -15 -15 -15
-12 -12 -12 -13 -13 -13 -13 -14 -15 -15 -15 -16 -16 -15 -16 -16 -17 -17 -17 -18 -18 -17 -17 -16 -16 -16 -16 -16 -16 -17 -17 -16 -16 -16 -16 -16 -16 -15 -15 -15 -15 -15 -15 -15 -15
-12 -12 -12 -13 -13 -13 -13 -14 -15 -15 -15 -16 -16 -16 -16 -16 -17 -17 -17 -18 -18 -17 -17 -17 -17 -17 -16 -16 -17 -17 -16 -16 -17 -16 -16 -16 -16 -16 -16 -16 -15 -15 -15 -15 -15
-12 -12 -12 -14 -13 -13 -14 -14 -15 -15 -15 -16 -16 -16 -16 -16 -17 -17 -17 -17 -17 -17 -17 -17 -17 -16 -17 -17 -16 -16 -16 -16 -16 -16 -16 -16 -16 -16 -16 -16 -16 -16 -16 -16 -15
-12 -12 -13 -14 -13 -13 -14 -15 -15 -15 -16 -16 -16 -16 -16 -16 -17 -18 -18 -17 -17 -17 -17 -16 -17 -16 -16 -16 -16 -16 -16 -16 -16 -16 -17 -16 -16 -16 -16 -16 -16 -16 -16 -16 -16
-13 -12 -13 -14 -14 -13 -14 -15 -15 -15 -16 -16 -16 -16 -16 -16 -17 -17 -17 -17 -17 -17 -17 -16 -16 -16 -16 -17 -16 -16 -16 -16 -16 -16 -16 -16 -16 -16 -16 -16 -16 -16 -16 -16 -16
-13 -13 -13 -13 -14 -14 -15 -15 -15 -16 -16 -16 -16 -16 -16 -17 -17 -18 -17 -18 -17 -16 -16 -16 -16 -17 -17 -17 -17 -16 -16 -16 -16 -16 -16 -16 -16 -15 -15 -16 -16 -16 -16 -16 -16
-13 -13 -13 -13 -14 -14 -15 -15 -16 -16 -16 -16 -16 -16 -16 -17 -17 -17 -17 -17 -17 -17 -17 -16 -17 -17 -17 -16 -16 -16 -16 -16 -16 -16 -16 -15 -15 -16 -16 -15 -15 -16 -16 -16 -16
-13 -13 -13 -14 -14 -14 -15 -15 -16 -16 -16 -17 -16 -16 -17 -17 -17 -17 -17 -17 -17 -17 -17 -17 -17 -17 -16 -16 -16 -16 -17 -16 -16 -16 -15 -15 -15 -16 -16 -15 -15 -15 -16 -16 -16
-13 -13 -14 -14 -14 -14 -15 -15 -16 -16 -16 -16 -16 -16 -17 -17 -17 -17 -17 -17 -17 -17 -17 -16 -17 -17 -17 -16 -17 -16 -16 -17 -16 -16 -16 -15 -15 -15 -15 -15 -15 -15 -15 -15 -16
-13 -14 -15 -14 -14 -15 -15 -16 -16 -16 -16 -16 -16 -17 -17 -17 -17 -17 -17 -17 -17 -17 -17 -16 -17 -17 -17 -17 -17 -17 -17 -16 -16 -16 -15 -15 -15 -15 -16 -15 -15 -15 -15 -15 -15
-13 -14 -15 -14 -14 -14 -15 -15 -16 -16 -17 -16 -16 -17 -17 -17 -17 -16 -16 -17 -17 -17 -16 -16 -16 -16 -17 -17 -17 -17 -16 -16 -16 -16 -15 -15 -16 -15 -16 -15 -15 -15 -14 -15 -15
-14 -14 -15 -14 -14 -15 -15 -15 -15 -16 -17 -16 -17 -17 -17 -16 -16 -16 -16 -17 -17 -16 -16 -16 -16 -16 -16 -17 -17 -17 -16 -16 -16 -16 -16 -15 -16 -16 -15 -15 -15 -14 -15 -15 -14
-14 -15 -15 -15 -15 -15 -15 -15 -16 -16 -16 -16 -16 -17 -17 -16 -16 -16 -16 -17 -16 -16 -17 -17 -17 -16 -16 -16 -16 -16 -16 -16 -16 -16 -16 -16 -16 -16 -15 -15 -15 -15 -14 -14 -14
-15 -15 -16 -15 -15 -15 -14 -16 -16 -16 -16 -16 -16 -16 -17 -17 -16 -16 -17 -16 -16 -16 -16 -16 -16 -16 -16 -16 -16 -15 -16 -16 -16 -16 -16 -15 -16 -16 -15 -15 -15 -15 -14 -14 -15
-15 -16 -15 -15 -15 -15 -15 -16 -16 -16 -16 -16 -16 -16 -16 -16 -16 -16 -17 -17 -16 -16 -16 -16 -16 -16 -16 -15 -16 -15 -15 -15 -15 -15 -15 -15 -15 -15 -15 -15 -15 -15 -15 -15 -15
-15 -16 -15 -15 -14 -15 -16 -16 -16 -16 -16 -16 -16 -16 -16 -16 -16 -16 -16 -16 -16 -16 -16 -16 -16 -16 -16 -15 -15 -16 -15 -15 -15 -15 -15 -15 -15 -15 -15 -15 -15 -15 -15 -15 -15
-17 -16 -16 -15 -15 -16 -16 -15 -16 -16 -15 -16 -16 -16 -16 -16 -16 -16 -16 -16 -16 -16 -16 -16 -16 -16 -16 -17 -16 -16 -15 -15 -15 -15 -15 -15 -15 -15 -15 -15 -15 -15 -15 -15 -15
-17 -16 -15 -14 -15 -16 -16 -16 -16 -16 -16 -16 -16 -16 -16 -16 -16 -15 -15 -15 -15 -15 -15 -15 -16 -16 -16 -16 -15 -15 -15 -15 -15 -15 -15 -15 -15 -16 -15 -15 -15 -15 -16 -16 -16
-16 -16 -16 -16 -16 -16 -16 -16 -16 -16 -16 -16 -16 -16 -16 -16 -16 -16 -16 -16 -15 -15 -15 -15 -15 -16 -15 -15 -15 -15 -15 -15 -15 -15 -15 -15 -15 -16 -16 -15 -16 -16 -16 -16 -16
-16 -16 -16 -15 -16 -16 -16 -16 -16 -16 -16 -16 -16 -16 -16 -16 -16 -16 -16 -16 -16 -16 -16 -15 -15 -15 -15 -15 -15 -14 -15 -15 -15 -15 -16 -16 -16 -15 -15 -15 -16 -16 -16 -16 -17
Height
5818 5816 5815 5812 5810 5806 5803 5800 5792 5788 5785 5781 5777 5773 5771 5770 5767 5764 5762 5761 5760 5761 5763 5764 5765 5768 5773 5779 5785 5791 5795 5801 5807 5805 5803 5796 5799 5797 5795 5797 5800 5783 5795 5797 5797
5812 5810 5809 5807 5806 5802 5798 5795 5788 5784 5781 5777 5774 5770 5769 5767 5764 5762 5760 5757 5757 5759 5761 5762 5764 5767 5772 5778 5784 5790 5794 5803 5802 5798 5796 5798 5796 5796 5795 5796 5790 5792 5792 5792 5794
5806 5805 5804 5803 5800 5798 5793 5789 5785 5780 5777 5774 5771 5768 5767 5764 5761 5759 5757 5756 5757 5758 5759 5761 5764 5767 5771 5777 5783 5788 5791 5792 5788 5787 5797 5794 5794 5794 5791 5792 5790 5787 5788 5790 5792
5802 5799 5798 5797 5796 5793 5789 5785 5780 5776 5774 5772 5769 5766 5765 5763 5761 5757 5756 5756 5757 5758 5759 5760 5763 5767 5773 5778 5781 5785 5787 5790 5791 5791 5795 5795 5795 5791 5785 5780 5784 5791 5789 5792 5793
5796 5794 5793 5793 5790 5788 5785 5780 5777 5772 5770 5769 5766 5764 5763 5761 5758 5756 5756 5756 5757 5758 5759 5761 5764 5768 5773 5776 5780 5783 5786 5789 5789 5791 5793 5793 5795 5793 5792 5789 5792 5791 5792 5793 5794
5789 5788 5788 5788 5785 5784 5781 5776 5772 5769 5767 5766 5764 5763 5762 5760 5757 5756 5756 5756 5757 5757 5758 5760 5762 5765 5768 5775 5778 5783 5785 5786 5787 5788 5791 5795 5793 5793 5794 5793 5793 5792 5793 5794 5794
5783 5783 5783 5783 5780 5779 5777 5772 5768 5766 5763 5763 5761 5761 5760 5760 5758 5756 5756 5755 5754 5756 5759 5762 5763 5766 5770 5774 5778 5781 5783 5785 5786 5788 5791 5793 5793 5792 5794 5794 5794 5794 5795 5795 5796
5777 5778 5777 5778 5775 5774 5772 5768 5764 5763 5760 5760 5759 5759 5759 5758 5756 5756 5756 5756 5757 5758 5760 5762 5766 5769 5772 5774 5778 5782 5785 5787 5785 5789 5792 5794 5794 5791 5794 5794 5793 5794 5794 5796 5796
5771 5771 5772 5771 5770 5769 5768 5765 5761 5759 5758 5758 5758 5758 5758 5758 5756 5755 5756 5758 5758 5760 5762 5765 5767 5770 5772 5775 5780 5783 5786 5787 5787 5791 5793 5794 5793 5792 5793 5793 5792 5794 5795 5795 5796
5764 5765 5766 5766 5765 5765 5763 5760 5757 5756 5756 5756 5756 5758 5756 5757 5754 5756 5757 5760 5760 5762 5763 5766 5768 5770 5772 5777 5783 5785 5789 5788 5790 5789 5793 5796 5793 5793 5794 5795 5794 5794 5794 5794 5795
5758 5759 5759 5760 5760 5760 5759 5756 5755 5754 5753 5754 5754 5754 5755 5756 5755 5757 5759 5761 5762 5764 5765 5767 5769 5772 5775 5776 5780 5786 5789 5791 5791 5790 5792 5795 5793 5793 5793 5793 5793 5793 5794 5794 5794
5750 5753 5754 5754 5755 5756 5754 5751 5749 5751 5751 5751 5750 5752 5753 5754 5755 5756 5760 5763 5764 5765 5765 5768 5769 5772 5776 5779 5782 5787 5789 5790 5789 5789 5791 5793 5793 5791 5792 5792 5792 5792 5793 5793 5793
5743 5745 5747 5748 5750 5751 5750 5747 5746 5747 5749 5748 5747 5749 5751 5752 5754 5757 5759 5762 5764 5764 5768 5771 5771 5773 5776 5780 5783 5786 5789 5786 5790 5790 5791 5793 5792 5790 5791 5791 5792 5792 5792 5792 5792
5734 5737 5740 5743 5746 5746 5745 5743 5743 5745 5746 5745 5745 5746 5747 5748 5751 5752 5755 5760 5763 5766 5767 5769 5771 5776 5778 5780 5782 5785 5785 5785 5788 5789 5791 5790 5793 5788 5791 5791 5791 5791 5791 5790 5790
5725 5729 5733 5737 5739 5740 5740 5738 5739 5742 5743 5740 5741 5743 5744 5747 5748 5752 5755 5758 5762 5766 5769 5771 5774 5777 5780 5779 5782 5776 5783 5785 5787 5788 5790 5788 5791 5788 5788 5791 5790 5789 5788 5788 5787
5716 5720 5726 5730 5733 5735 5734 5735 5736 5738 5736 5737 5739 5740 5742 5744 5747 5748 5752 5755 5758 5762 5767 5764 5772 5776 5777 5778 5779 5781 5783 5783 5785 5788 5787 5788 5781 5783 5784 5786 5786 5786 5785 5784 5782
5706 5711 5718 5722 5726 5728 5730 5731 5731 5732 5733 5735 5737 5739 5742 5744 5746 5749 5752 5755 5759 5761 5766 5768 5770 5773 5776 5777 5778 5780 5782 5784 5786 5786 5785 5784 5784 5786 5786 5777 5780 5781 5780 5779 5778
5698 5703 5709 5715 5718 5721 5724 5726 5726 5729 5730 5732 5735 5738 5741 5743 5746 5749 5752 5756 5759 5763 5766 5770 5771 5771 5773 5776 5777 5776 5781 5782 5781 5783 5785 5780 5782 5785 5781 5778 5777 5776 5776 5775 5774
5686 5693 5702 5709 5712 5715 5717 5719 5723 5726 5729 5732 5734 5736 5740 5742 5745 5748 5751 5757 5758 5760 5762 5767 5767 5768 5769 5770 5773 5776 5775 5777 5777 5778 5778 5780 5780 5778 5776 5773 5773 5772 5772 5771 5771
5677 5686 5694 5700 5704 5707 5712 5718 5718 5722 5726 5730 5733 5736 5739 5742 5744 5747 5750 5753 5755 5757 5761 5764 5767 5764 5765 5767 5769 5770 5771 5774 5774 5773 5773 5777 5776 5777 5772 5770 5770 5769 5769 5769 5768
5666 5675 5683 5691 5696 5698 5705 5713 5714 5720 5725 5729 5732 5735 5738 5741 5743 5746 5751 5750 5752 5755 5757 5759 5761 5760 5762 5764 5766 5767 5767 5769 5770 5770 5770 5771 5774 5770 5769 5769 5768 5767 5767 5765 5764
5654 5665 5674 5682 5687 5695 5701 5707 5711 5717 5723 5727 5729 5733 5736 5739 5741 5744 5746 5748 5749 5752 5754 5756 5757 5757 5759 5759 5761 5762 5763 5764 5766 5767 5767 5767 5769 5767 5766 5765 5765 5765 5763 5760 5759
5643 5654 5662 5673 5679 5688 5697 5701 5706 5714 5720 5725 5727 5731 5734 5736 5740 5741 5743 5745 5746 5749 5750 5752 5753 5754 5756 5758 5759 5759 5761 5762 5762 5763 5764 5764 5765 5763 5762 5762 5761 5759 5758 5756 5753
5635 5643 5654 5664 5676 5683 5689 5695 5702 5709 5715 5721 5725 5728 5731 5733 5735 5737 5738 5741 5742 5744 5746 5748 5749 5751 5753 5755 5754 5756 5757 5758 5759 5760 5761 5762 5761 5759 5757 5757 5755 5754 5750 5747 5745
5619 5637 5651 5655 5666 5675 5684 5694 5699 5706 5712 5717 5722 5726 5728 5730 5731 5732 5733 5735 5737 5739 5741 5743 5744 5745 5747 5749 5750 5752 5753 5755 5756 5758 5757 5760 5756 5756 5752 5750 5748 5746 5744 5741 5737
5613 5627 5643 5653 5663 5670 5678 5686 5695 5703 5709 5715 5720 5722 5724 5725 5728 5729 5729 5731 5733 5735 5736 5738 5739 5741 5743 5745 5747 5747 5749 5751 5752 5753 5752 5752 5751 5748 5746 5743 5741 5738 5735 5732 5727
5606 5622 5634 5644 5654 5664 5672 5681 5690 5698 5705 5710 5716 5719 5721 5722 5723 5725 5725 5727 5729 5730 5731 5733 5735 5737 5739 5741 5741 5743 5746 5746 5747 5747 5746 5745 5745 5738 5737 5734 5733 5728 5724 5720 5716
Wind_Speed
33 33 34 35 35 35 35 37 33 29 27 28 29 22 16 17 17 20 19 18 15 13 12 13 15 20 26 25 29 23 17 10 11 21 13 9 19 23 29 32 24 6 27 17 14
32 33 33 34 34 34 33 36 31 26 26 26 25 16 16 19 20 18 18 15 9 11 11 11 12 18 25 25 29 20 15 7 22 25 16 18 13 16 25 18 22 23 23 7 6
31 34 34 36 33 34 33 33 28 24 25 20 19 14 16 20 22 16 11 6 6 7 7 8 10 14 22 26 27 19 18 18 24 13 19 2 2 4 9 9 13 5 9 7 3
32 34 34 37 33 32 33 31 25 23 23 19 18 13 14 17 14 15 7 7 8 8 7 10 13 14 17 20 22 21 23 19 28 24 17 9 10 9 16 16 11 8 6 2 2
32 34 33 37 32 32 32 28 23 23 23 22 18 14 13 14 16 8 7 8 8 9 9 10 16 17 18 17 20 21 21 20 21 19 10 12 8 8 7 4 2 4 4 1 2
32 33 34 37 31 32 31 23 22 21 23 23 16 13 13 13 11 7 8 9 12 11 10 13 20 25 24 19 17 16 18 14 12 13 13 10 6 4 5 4 3 0 2 1 2
32 32 35 36 30 31 29 22 20 21 25 17 13 13 14 11 9 8 6 10 10 11 10 11 18 26 21 20 22 18 11 14 23 15 9 5 7 5 8 4 2 2 0 2 3
28 29 33 35 29 29 27 20 17 24 18 11 12 12 13 14 12 9 5 8 13 10 11 17 24 22 26 29 26 17 11 10 4 11 10 9 12 4 8 7 6 4 2 1 2
27 29 32 32 29 26 24 19 17 22 13 11 11 12 14 15 18 8 5 16 14 15 18 29 29 30 29 25 14 15 9 12 10 11 9 10 16 6 5 4 4 5 4 3 4
26 28 31 30 28 24 22 19 17 18 10 12 11 12 16 14 8 11 11 15 16 18 22 27 29 28 27 20 13 12 9 7 8 12 12 9 16 10 7 9 10 8 7 6 8
28 30 31 29 26 23 21 17 17 15 13 14 11 14 14 15 11 15 22 18 15 15 20 21 25 20 16 17 5 4 7 7 12 7 12 10 11 8 8 8 9 9 8 10 12
31 32 33 28 23 22 19 16 16 14 13 14 12 14 15 16 14 16 23 18 22 8 16 7 17 15 10 13 11 8 9 12 9 8 10 10 10 7 7 10 11 12 11 11 11
34 33 33 30 21 21 18 15 13 11 14 15 15 16 16 16 20 18 25 22 12 13 13 11 11 10 12 10 9 7 9 12 6 7 11 11 14 9 9 10 9 9 9 11 11
36 35 34 31 20 22 19 15 14 13 16 17 18 17 16 16 25 25 33 29 20 8 13 22 11 7 2 8 10 9 14 7 11 7 10 11 12 14 10 11 10 11 14 16 17
38 37 36 30 22 23 18 18 17 17 19 23 19 15 14 17 23 26 34 33 23 16 10 6 16 11 6 10 7 18 6 11 11 7 18 8 15 31 8 16 16 16 18 20 21
40 40 36 25 25 24 21 21 20 22 20 18 14 13 15 18 21 30 38 35 34 27 21 13 14 13 12 8 11 10 13 9 13 9 16 15 17 18 16 21 26 23 23 23 24
45 43 35 30 29 25 22 24 23 22 17 15 13 14 15 17 18 24 33 33 25 32 23 18 21 19 18 15 14 14 11 7 10 16 16 17 22 18 19 17 28 26 28 27 25
49 44 37 32 33 26 25 25 25 15 16 15 16 17 18 18 20 22 24 27 26 18 13 20 16 19 21 18 12 14 11 13 15 11 14 20 22 16 24 32 30 27 27 24 23
52 47 39 35 34 29 29 27 17 16 19 18 19 20 21 20 21 21 23 17 22 23 18 12 21 17 18 18 17 15 19 21 21 21 21 20 18 22 21 25 26 23 18 17 14
54 47 41 39 37 33 30 23 22 22 21 21 19 19 17 16 18 20 21 24 21 21 26 21 19 23 17 18 18 21 20 18 20 23 21 7 14 13 18 13 13 11 12 13 16
56 51 46 43 40 36 31 26 26 25 24 22 21 20 18 18 18 18 17 18 18 18 19 21 19 18 19 19 16 20 21 19 20 19 15 13 6 18 12 11 11 13 15 19 22
59 55 49 48 43 36 31 33 30 30 27 25 24 23 20 19 18 18 18 18 18 17 18 19 19 21 18 20 19 19 18 18 18 18 15 13 12 13 15 16 17 19 22 24 26
64 58 54 52 45 38 36 38 38 34 30 27 25 22 20 18 18 18 20 18 19 19 21 19 21 21 21 19 18 17 17 18 19 17 15 16 13 16 19 20 22 25 26 28 31
65 60 57 54 47 41 43 43 41 37 33 30 26 22 19 19 20 21 23 23 23 24 24 24 24 23 20 15 19 18 18 19 19 18 17 16 17 21 25 24 26 28 32 35 36
70 62 53 56 52 46 44 43 42 38 35 31 25 20 18 19 21 22 21 21 22 23 24 23 21 21 20 20 20 20 19 21 22 19 22 18 24 23 30 33 33 35 36 39 42
72 65 60 53 54 48 51 49 45 39 36 29 23 18 17 17 18 17 19 19 19 19 20 21 21 19 19 20 21 22 22 22 23 23 26 26 30 31 33 37 38 42 44 46 49
70 65 65 57 56 53 54 52 47 43 38 33 25 18 15 12 14 15 16 16 17 19 20 20 20 20 20 19 22 22 19 23 24 25 28 31 31 39 40 43 44 48 51 52 53
Wind_Direction
295 300 302 308 310 314 322 324 326 318 315 315 313 305 304 307 309 309 306 299 271 248 259 248 212 207 200 199 191 194 194 200 222 238 245 201 258 264 265 260 259 206 282 281 230
292 297 301 308 310 313 321 323 327 313 310 308 309 302 298 302 312 300 303 294 244 247 248 228 201 210 200 192 193 190 171 203 219 222 206 238 281 267 270 277 250 275 275 241 197
290 295 300 306 310 311 320 321 322 316 308 304 307 303 298 314 309 304 301 264 227 246 214 198 200 204 197 190 193 186 162 209 204 196 239 47 347 70 219 248 263 266 224 178 182
287 293 296 302 310 310 317 319 318 310 311 299 299 296 308 324 316 315 273 242 231 216 215 191 180 172 184 190 195 184 204 199 212 238 236 140 203 214 257 195 111 92 81 108 142
287 289 292 299 307 309 314 317 312 307 307 300 285 292 305 313 320 298 257 248 236 227 211 190 176 173 178 189 193 188 206 221 226 239 205 184 154 212 312 23 182 120 119 130 164
283 286 291 298 305 306 311 312 308 304 310 295 280 288 295 310 315 278 259 254 239 213 211 186 183 181 168 177 167 182 212 199 186 186 152 157 200 195 213 246 252 140 10 327 167
279 284 288 294 304 306 309 309 307 306 309 285 269 285 280 301 305 267 265 287 223 172 192 198 181 166 178 168 171 163 172 212 162 157 164 192 224 238 188 183 240 255 223 266 207
275 280 285 292 299 304 306 302 307 313 304 264 262 279 279 289 280 264 239 172 149 144 167 165 169 171 171 160 164 154 162 179 120 156 183 142 259 195 188 216 214 229 217 239 257
270 276 281 289 295 300 301 293 301 312 293 252 265 277 282 289 292 228 280 154 149 153 154 160 162 168 175 164 146 169 160 198 185 188 173 123 244 183 197 237 257 286 295 288 278
264 274 278 287 292 298 295 287 294 304 268 249 259 267 275 289 259 206 188 164 167 176 167 171 168 180 157 156 158 204 196 188 198 220 188 155 222 201 236 255 278 282 290 299 312
260 268 274 281 286 292 290 283 287 282 253 244 248 269 272 280 230 187 168 175 165 204 163 192 181 172 193 152 176 154 158 170 200 224 177 197 217 215 237 242 270 278 272 266 282
256 262 269 274 278 286 279 275 277 266 254 246 254 269 271 272 212 184 172 185 184 184 161 200 186 160 196 193 160 171 175 185 232 203 174 197 219 231 242 263 274 264 271 280 282
252 255 262 269 272 273 267 272 262 248 257 256 261 263 267 250 194 190 183 196 212 166 160 194 192 138 157 177 198 198 202 201 219 209 182 216 242 244 253 256 270 272 267 268 271
247 248 255 263 260 263 257 260 244 250 255 260 261 260 252 233 203 192 180 186 195 179 227 196 154 179 171 185 183 204 204 188 179 248 229 228 243 211 238 235 243 262 268 272 272
238 242 248 254 251 251 243 240 242 249 245 261 258 255 235 213 202 199 184 186 175 197 200 199 181 210 196 214 234 273 169 235 206 174 222 272 252 282 194 260 258 258 262 264 265
235 236 241 237 240 243 241 237 234 248 244 252 250 234 214 211 198 197 192 202 185 176 188 182 216 198 222 284 277 254 258 253 215 235 252 240 240 264 275 259 260 262 261 261 263
231 230 229 228 234 236 234 230 232 240 240 241 225 205 199 198 193 199 202 205 205 184 191 200 217 237 247 269 265 236 236 236 241 245 272 253 249 255 264 277 262 262 268 266 262
228 226 223 222 227 225 227 230 232 224 222 218 201 191 197 194 192 194 197 208 207 208 213 222 258 250 247 247 262 227 217 238 278 248 247 272 271 270 254 264 266 271 266 266 264
222 222 220 219 222 222 223 229 221 207 212 202 197 196 200 193 187 190 190 198 215 212 227 208 237 246 237 240 230 248 232 233 237 255 262 252 260 284 268 265 265 271 265 259 258
219 217 211 215 217 215 221 219 200 203 198 195 192 190 187 185 187 191 197 200 208 208 204 215 223 245 237 241 238 242 248 247 250 260 274 276 254 244 265 263 261 260 260 265 274
214 211 208 210 215 212 215 205 193 192 191 191 186 188 187 188 184 187 204 206 203 206 209 222 228 244 245 245 249 243 249 246 253 257 258 255 222 252 256 262 268 273 276 283 288
211 209 206 208 210 210 203 198 188 190 191 194 186 186 188 190 192 195 203 215 210 214 220 226 231 246 248 247 244 252 247 249 243 246 242 240 232 258 270 276 276 281 285 288 289
209 205 204 206 206 203 196 197 185 191 192 195 188 190 193 198 205 210 217 222 223 227 234 237 241 246 250 250 247 247 237 235 236 236 238 251 270 264 267 271 275 280 281 285 288
205 201 205 207 200 198 197 192 188 190 192 192 190 192 204 218 228 232 236 236 237 236 237 240 242 247 245 242 237 229 233 233 235 236 242 253 261 274 269 274 280 285 289 292 294
201 200 207 204 200 195 195 193 188 192 191 189 192 200 217 226 232 234 237 237 235 235 237 237 242 239 234 238 234 234 235 239 242 241 248 255 268 272 277 285 289 290 292 294 295
200 196 202 201 199 195 191 191 192 194 189 187 189 201 211 224 223 228 229 229 228 229 232 234 234 232 233 234 236 240 240 246 253 257 263 266 271 275 280 284 287 291 293 294 295
195 196 198 199 197 196 194 191 191 195 187 184 189 192 197 204 215 222 221 225 226 228 231 232 229 231 234 238 243 247 252 255 258 261 267 270 276 277 283 283 288 290 292 294 296